• In Uzbekistan
  • List of Countries
  • For 7 days
  • Water Temperature
  • Weather Map
  • Weather Widgets
  • user-avatar
    Login

    Hourly Weather Stepanakert

    Today, 10 April, Friday

    Time Temperature Precipitation Wind Pressure Humidity
    00:00 +4°C° 0 mm 0 mps 690 mmHg 89%
    01:00 +3°C° 0 mm 0 mps 690 mmHg 90%
    02:00 +3°C° 0 mm 0 mps 689 mmHg 90%
    03:00 +3°C° 0 mm 0 mps 689 mmHg 90%
    04:00 +3°C° 0 mm 0 mps 689 mmHg 90%
    05:00 +3°C° 0 mm 0 mps 689 mmHg 90%
    06:00 +3°C° 0 mm 0 mps 689 mmHg 90%
    07:00 +5°C° 0 mm 1 mps 689 mmHg 84%
    08:00 +7°C° 0 mm 1 mps 689 mmHg 77%
    09:00 +7°C° 0 mm 2 mps 689 mmHg 71%
    10:00 +8°C° 0 mm 2 mps 689 mmHg 69%
    11:00 +9°C° 0 mm 2 mps 689 mmHg 68%
    12:00 +9°C° 0 mm 2 mps 689 mmHg 66%
    13:00 +9°C° 0 mm 2 mps 688 mmHg 69%
    14:00 +9°C° 0 mm 2 mps 688 mmHg 72%
    15:00 +9°C° 0 mm 2 mps 687 mmHg 75%
    16:00 +9°C° 0.1 mm 1 mps 687 mmHg 79%
    17:00 +9°C° 0.1 mm 1 mps 687 mmHg 83%
    18:00 +8°C° 0.1 mm 1 mps 687 mmHg 87%
    19:00 +8°C° 0.1 mm 1 mps 688 mmHg 88%
    20:00 +8°C° 0.1 mm 1 mps 688 mmHg 88%
    21:00 +7°C° 0.1 mm 1 mps 688 mmHg 89%
    22:00 +7°C° 0.3 mm 1 mps 688 mmHg 89%
    23:00 +7°C° 0.3 mm 1 mps 688 mmHg 89%

    Tomorrow, 11 April, Saturday

    Time Temperature Precipitation Wind Pressure Humidity
    00:00 +7°C° 0.3 mm 1 mps 688 mmHg 89%
    01:00 +6°C° 0.1 mm 1 mps 688 mmHg 88%
    02:00 +6°C° 0.1 mm 1 mps 688 mmHg 87%
    03:00 +6°C° 0.1 mm 1 mps 688 mmHg 86%
    04:00 +5°C° 0.2 mm 0 mps 688 mmHg 87%
    05:00 +5°C° 0.2 mm 0 mps 688 mmHg 87%
    06:00 +5°C° 0.2 mm 0 mps 688 mmHg 88%
    07:00 +5°C° 0.1 mm 0 mps 688 mmHg 87%
    08:00 +7°C° 0.1 mm 1 mps 688 mmHg 86%
    09:00 +7°C° 0.1 mm 1 mps 688 mmHg 84%
    10:00 +8°C° 0 mm 1 mps 688 mmHg 84%
    11:00 +8°C° 0 mm 1 mps 688 mmHg 83%
    12:00 +9°C° 0 mm 1 mps 688 mmHg 83%
    13:00 +10°C° 0 mm 1 mps 688 mmHg 80%
    14:00 +10°C° 0 mm 1 mps 688 mmHg 78%
    15:00 +11°C° 0 mm 1 mps 687 mmHg 75%
    16:00 +11°C° 0 mm 1 mps 688 mmHg 77%
    17:00 +10°C° 0 mm 1 mps 688 mmHg 79%
    18:00 +10°C° 0 mm 1 mps 688 mmHg 82%
    19:00 +10°C° 0 mm 1 mps 688 mmHg 83%
    20:00 +9°C° 0 mm 1 mps 689 mmHg 85%
    21:00 +8°C° 0 mm 1 mps 689 mmHg 86%
    22:00 +8°C° 0 mm 1 mps 689 mmHg 86%
    23:00 +8°C° 0 mm 1 mps 690 mmHg 85%

    Day after tomorrow, 12 April, Sunday

    Time Temperature Precipitation Wind Pressure Humidity
    00:00 +8°C° 0 mm 1 mps 690 mmHg 85%
    01:00 +8°C° 0.1 mm 1 mps 690 mmHg 86%
    02:00 +8°C° 0.1 mm 1 mps 690 mmHg 87%
    03:00 +7°C° 0.1 mm 1 mps 690 mmHg 87%
    04:00 +7°C° 0.1 mm 1 mps 691 mmHg 88%
    05:00 +8°C° 0.1 mm 1 mps 691 mmHg 88%
    06:00 +8°C° 0.1 mm 1 mps 691 mmHg 88%
    07:00 +8°C° 0.1 mm 1 mps 692 mmHg 87%
    08:00 +9°C° 0.1 mm 1 mps 692 mmHg 85%
    09:00 +9°C° 0.1 mm 1 mps 692 mmHg 84%
    10:00 +9°C° 0.3 mm 1 mps 692 mmHg 83%
    11:00 +8°C° 0.3 mm 2 mps 692 mmHg 83%
    12:00 +9°C° 0.3 mm 2 mps 691 mmHg 82%
    13:00 +8°C° 0.5 mm 2 mps 691 mmHg 84%
    14:00 +8°C° 0.5 mm 2 mps 691 mmHg 85%
    15:00 +7°C° 0.5 mm 2 mps 690 mmHg 87%
    16:00 +7°C° 0.2 mm 2 mps 691 mmHg 88%
    17:00 +7°C° 0.2 mm 2 mps 691 mmHg 88%
    18:00 +6°C° 0.2 mm 2 mps 691 mmHg 89%
    19:00 +6°C° 0.4 mm 2 mps 692 mmHg 90%
    20:00 +6°C° 0.4 mm 2 mps 693 mmHg 90%
    21:00 +7°C° 0.4 mm 1 mps 694 mmHg 91%
    22:00 +6°C° 0.2 mm 1 mps 694 mmHg 92%
    23:00 +6°C° 0.2 mm 1 mps 694 mmHg 93%

    13 April, Monday

    Time Temperature Precipitation Wind Pressure Humidity
    00:00 +5°C° 0.2 mm 0 mps 695 mmHg 93%
    01:00 +6°C° 0.2 mm 1 mps 695 mmHg 94%
    02:00 +5°C° 0.2 mm 1 mps 695 mmHg 95%
    03:00 +5°C° 0.2 mm 1 mps 695 mmHg 96%
    04:00 +5°C° 0.1 mm 1 mps 695 mmHg 95%
    05:00 +5°C° 0.1 mm 1 mps 696 mmHg 94%
    06:00 +5°C° 0.1 mm 1 mps 696 mmHg 93%
    07:00 +5°C° 0.1 mm 1 mps 696 mmHg 89%
    08:00 +5°C° 0.1 mm 2 mps 697 mmHg 85%
    09:00 +6°C° 0.1 mm 2 mps 697 mmHg 81%
    10:00 +6°C° 0.1 mm 2 mps 697 mmHg 80%
    11:00 +7°C° 0.1 mm 2 mps 697 mmHg 80%
    12:00 +7°C° 0.1 mm 2 mps 696 mmHg 80%
    13:00 +7°C° 0.1 mm 2 mps 696 mmHg 81%
    14:00 +7°C° 0.1 mm 2 mps 696 mmHg 83%
    15:00 +7°C° 0.1 mm 2 mps 695 mmHg 85%
    16:00 +7°C° 0 mm 2 mps 695 mmHg 87%
    17:00 +7°C° 0 mm 2 mps 695 mmHg 89%
    18:00 +7°C° 0 mm 1 mps 695 mmHg 91%
    19:00 +7°C° 0 mm 1 mps 696 mmHg 92%
    20:00 +7°C° 0 mm 1 mps 696 mmHg 93%
    21:00 +7°C° 0 mm 1 mps 696 mmHg 94%
    22:00 +5°C° 0 mm 0 mps 696 mmHg 94%
    23:00 +5°C° 0 mm 0 mps 696 mmHg 94%

    14 April, Tuesday

    Time Temperature Precipitation Wind Pressure Humidity
    00:00 +5°C° 0 mm 0 mps 696 mmHg 94%
    01:00 +5°C° 0 mm 0 mps 696 mmHg 93%
    02:00 +5°C° 0 mm 0 mps 696 mmHg 92%
    03:00 +5°C° 0 mm 0 mps 695 mmHg 91%
    04:00 +5°C° 0 mm 0 mps 695 mmHg 91%
    05:00 +4°C° 0 mm 0 mps 695 mmHg 90%
    06:00 +4°C° 0 mm 0 mps 695 mmHg 90%
    07:00 +6°C° 0 mm 0 mps 695 mmHg 86%
    08:00 +8°C° 0 mm 1 mps 695 mmHg 81%
    09:00 +8°C° 0 mm 2 mps 695 mmHg 77%
    10:00 +9°C° 0 mm 2 mps 695 mmHg 76%
    11:00 +9°C° 0 mm 2 mps 694 mmHg 75%
    12:00 +10°C° 0 mm 2 mps 694 mmHg 75%
    13:00 +10°C° 0 mm 2 mps 694 mmHg 74%
    14:00 +12°C° 0 mm 2 mps 693 mmHg 74%
    15:00 +12°C° 0 mm 2 mps 693 mmHg 73%
    16:00 +12°C° 0 mm 1 mps 693 mmHg 77%
    17:00 +11°C° 0 mm 1 mps 693 mmHg 80%
    18:00 +11°C° 0 mm 1 mps 693 mmHg 83%
    19:00 +10°C° 0 mm 1 mps 693 mmHg 85%
    20:00 +9°C° 0 mm 1 mps 693 mmHg 86%
    21:00 +8°C° 0 mm 1 mps 693 mmHg 88%
    22:00 +8°C° 0 mm 1 mps 693 mmHg 86%
    23:00 +8°C° 0 mm 1 mps 692 mmHg 84%

    15 April, Wednesday

    Time Temperature Precipitation Wind Pressure Humidity
    00:00 +8°C° 0 mm 1 mps 692 mmHg 82%
    01:00 +8°C° 0 mm 1 mps 692 mmHg 80%
    02:00 +8°C° 0 mm 1 mps 691 mmHg 78%
    03:00 +7°C° 0 mm 1 mps 691 mmHg 76%
    04:00 +8°C° 0 mm 1 mps 691 mmHg 73%
    05:00 +8°C° 0 mm 1 mps 691 mmHg 71%
    06:00 +8°C° 0 mm 1 mps 691 mmHg 69%
    07:00 +11°C° 0 mm 1 mps 691 mmHg 65%
    08:00 +13°C° 0 mm 1 mps 691 mmHg 60%
    09:00 +15°C° 0 mm 1 mps 691 mmHg 56%
    10:00 +16°C° 0 mm 1 mps 691 mmHg 55%
    11:00 +17°C° 0 mm 2 mps 691 mmHg 54%
    12:00 +18°C° 0 mm 2 mps 691 mmHg 53%
    13:00 +18°C° 0.1 mm 2 mps 690 mmHg 55%
    14:00 +18°C° 0.1 mm 2 mps 690 mmHg 57%
    15:00 +18°C° 0.1 mm 2 mps 690 mmHg 59%
    16:00 +18°C° 0.1 mm 1 mps 689 mmHg 65%
    17:00 +16°C° 0.1 mm 1 mps 689 mmHg 71%
    18:00 +14°C° 0.1 mm 0 mps 689 mmHg 77%
    19:00 +14°C° 0 mm 1 mps 689 mmHg 75%
    20:00 +13°C° 0 mm 1 mps 689 mmHg 72%
    21:00 +13°C° 0 mm 2 mps 689 mmHg 69%
    22:00 +12°C° 0 mm 2 mps 689 mmHg 67%
    23:00 +12°C° 0 mm 2 mps 688 mmHg 65%
    Show more